Regional Weather Roundup
Issued by NWS

Home | Current Version | Previous Version | Graphics & Text | Print | Product List | Glossary On
Versions: 1 2 3 4 5 6 7 8 9 10 11 12 13 14 15 16 17 18 19 20 21 22 23 24 25 26 27 28 29 30 31 32 33 34 35 36 37 38 39 40 41 42 43 44 45 46 47 48 49 50
000
ASUS43 KMKX 061959
RWRWI

WISCONSIN REGIONAL WEATHER ROUNDUP
NATIONAL WEATHER SERVICE MILWAUKEE/SULLIVAN WI
200 PM CST FRI MAR 06 2015

NOTE: "FAIR" INDICATES FEW OR NO CLOUDS BELOW 12,000 FEET WITH NO
SIGNIFICANT WEATHER AND/OR OBSTRUCTIONS TO VISIBILITY.

WIZ001-002-006>008-014>016-023>028-062100-
NORTHWEST WISCONSIN

CITY           SKY/WX    TMP DP  RH WIND       PRES   REMARKS
SUPERIOR ARPT  SUNNY     32  15  48 W14       29.98F WCI  22
ASHLAND        SUNNY     33  12  41 W13       29.96F WCI  24
HAYWARD        SUNNY     30  10  43 W8        29.97F WCI  22
SIREN          SUNNY     31  13  48 W7        30.01F WCI  24
CUMBERLAND     SUNNY     28  12  50 W12       29.99F WCI  18
RICE LAKE      SUNNY     28  13  54 SW7       30.02F WCI  20
CHETEK         SUNNY     29  13  51 SW7       30.01F WCI  22
LADYSMITH      SUNNY     28  11  50 SW8       30.01F WCI  19
EAU CLAIRE     SUNNY     30  14  51 SW12      30.02F WCI  20
MENOMONIE      SUNNY     32  14  48 W7        30.03F WCI  25
NEW RICHMOND   SUNNY     33  16  48 W8        30.02F WCI  26
OSCEOLA        SUNNY     34  16  48 W12       30.05F WCI  25
$$

WIZ003>005-009-010-017-018-062100-
NORTH CENTRAL WISCONSIN

CITY           SKY/WX    TMP DP  RH WIND       PRES   REMARKS
MANITOWISH WTR SUNNY     25   8  48 W13G20    29.91F WCI  14
ARBOR VITAE    SUNNY     27  10  47 W14       29.91F WCI  16
WOODRUFF       SUNNY     27  10  47 W14       29.91F WCI  16
RHINELANDER    SUNNY     24   9  52 SW14G20   29.92F WCI  12
EAGLE RIVER    SUNNY     25   5  41 SW10      29.90F WCI  15
LAND O LAKES   SUNNY     29   7  38 SW9G16    29.89F WCI  20
PHILLIPS       SUNNY     24   9  52 SW10      29.95F WCI  13
TOMAHAWK       SUNNY     26   8  46 CALM      29.95F
MEDFORD        SUNNY     24  10  55 SW9       29.97F WCI  15
MERRILL        SUNNY     26  10  51 SW12G17   29.97F WCI  16
$$

WIZ029-030-035-036-043>047-062100-
CENTRAL WISCONSIN

CITY           SKY/WX    TMP DP  RH WIND       PRES   REMARKS
WAUSAU         SUNNY     26  11  52 SW13      29.97F WCI  15
MOSINEE        SUNNY     25  12  58 SW10      30.00F WCI  15
MARSHFIELD     SUNNY     29  12  49 SW12      29.99F WCI  19
STEVENS POINT  CLOUDY    27  10  49 SW12G18   30.02F WCI  16
WAUPACA        PTSUNNY   32  11  41 SW10      30.05F WCI  24
WAUTOMA        NOT AVBL
WISC RAPIDS    CLOUDY    29  12  49 SW15      30.03F WCI  18
CAMP DOUGLAS   NOT AVBL
$$

WIZ011>013-019>022-031-037>040-048>050-062100-
NORTHEAST WISCONSIN

CITY           SKY/WX    TMP DP  RH WIND       PRES   REMARKS
ANTIGO         SUNNY     23  10  58 SW14      29.96F WCI  11
SHAWANO        SUNNY     31  10  42 SW12G21   30.03F WCI  22
OCONTO         CLOUDY    26  10  52 SW10      30.04F WCI  15
STURGEON BAY   CLOUDY    25   9  50 SW21      30.05F WCI  10
GREEN BAY      CLOUDY    26  13  57 SW15G22   30.04F WCI  14
MANITOWOC      NOT AVBL
APPLETON       MOSUNNY   28  12  50 SW18      30.04F WCI  16
CLINTONVILLE   MOSUNNY   30  12  47 SW9       30.03F WCI  22
OSHKOSH        CLOUDY    27  13  55 S17       30.06F WCI  14
$$

WIZ032>034-041-042-053>061-062100-
SOUTHWEST WISCONSIN

CITY           SKY/WX    TMP DP  RH WIND       PRES   REMARKS
LA CROSSE      SUNNY     32  18  56 S14       30.06F WCI  22
SPARTA         MOSUNNY   32  14  48 S8        30.07F WCI  24
VIROQUA        PTSUNNY   29  16  58 SW17      30.07F WCI  17
BOSCOBEL       SUNNY     30  15  53 S13       30.13F WCI  20
PRAIRIE DU CHI SUNNY     30  16  54 S9        30.14F WCI  22
PLATTEVILLE    SUNNY     28  17  65 S15       30.14F WCI  16
$$

WIZ056-057-062-063-064-067-068-062100-
SOUTH CENTRAL WISCONSIN

CITY           SKY/WX    TMP DP  RH WIND       PRES   REMARKS
REEDSBURG      CLOUDY    29  14  55 SW15      30.09F WCI  17
BARABOO/DELLS  PTSUNNY   26  12  55 SW12      30.09F WCI  16
LONE ROCK      NOT AVBL
MINERAL POINT  SUNNY     28  16  59 S12       30.12F WCI  18
MADISON        PTSUNNY   26  11  52 SW14G22   30.12F WCI  14
MIDDLETON      MOSUNNY   30  11  44 SW15      30.13F WCI  19
WATERTOWN      CLOUDY    26  12  55 S18G24    30.13F WCI  13
MONROE         SUNNY     27  16  63 S20       30.14F WCI  13
JANESVILLE     SUNNY     27  12  54 S17G23    30.16  WCI  14
$$

WIZ051-052-058>065-066-070>072-062100-
SOUTHEAST WISCONSIN

CITY           SKY/WX    TMP DP  RH WIND       PRES   REMARKS
MILWAUKEE      PTSUNNY   28   9  44 SW22G32   30.15F WCI  14
WAUKESHA       MOSUNNY   25  10  54 SW14G25   30.15F WCI  13
MILWAUKEE/TIMM PTSUNNY   27   7  43 S20       30.14F WCI  13
RACINE         CLOUDY    28  10  46 S18G25    30.18F WCI  15
BURLINGTON     PTSUNNY   25  11  54 S18G24    30.17F WCI  11
KENOSHA        CLOUDY    27  11  51 SW18G25   30.17F WCI  14
FOND DU LAC    CLOUDY    27  11  51 SW18G25   30.08F WCI  14
SHEBOYGAN      CLOUDY    27  13  55 SW23      30.09F WCI  12
WEST BEND      CLOUDY    28  10  47 S17G23    30.11F WCI  16
JUNEAU         PTSUNNY   27  13  56 SW20G25   30.12F WCI  13
$$

LSZ147-162-062100-
LAKE SUPERIOR

STATION/POSITION TIME  TEMP    WIND        PRES    WAVE
                       AIR SEA DIR/SP/G            HT/PER
                 (UTC) (F)     (DEG/KT/KT) (MB)    (FT/S)
DEVILS ISLAND    1900   24     240/ 22/ 26 1014.9F
PORT WING        1900   28     250/ 15/ 18 1015.2F
SAXON HARBOR     1800   26     220/  9/ 15 1015.2F
$$

LMZ867-665-643>646-062100-
LAKE MICHIGAN

STATION/POSITION TIME  TEMP    WIND        PRES    WAVE
                       AIR SEA DIR/SP/G            HT/PER
                 (UTC) (F)     (DEG/KT/KT) (MB)    (FT/S)
NORTHPORT PIER   1903   27     210/  8/ 20 1016.9F
SISTER BAY       1943   26     220/ 19/ 24   N/A
KEWAUNEE LAKESHO 1900   28     220/ 18/ 27 1018.1F
SHEBOYGAN LAKESH 1800   24     200/ 18/ 23 1023.2F
PORT WASHINGTON  1914   31     210/ 14/ 25 1021.0F
MILWAUKEE LAKESH 1900   25     210/ 16/ 20   N/A
KENOSHA   LAKESH 1900   26     200/ 15/ 24 1022.7F
$$

TC  - TEMPERATURE IN CELSIUS
VSB - VISIBILITY IN STATUTE MILES
WCI - WIND CHILL INDEX
HX  - HEAT INDEX




USA.gov is the U.S. government's official web portal to all federal, state and local government web resources and services.